AAL1738 KPHL-MBPV

Flight info

Callsign AAL1738
Flight time 2h 45m
Altitude 35000
Route OOD DCT TEBEE DCT HAYDO DCT SIE B24 LYNUS/N0450F360 DCT SILLY/M078F360 Y494 HOBOH/M078F350 Y488 CHUBY/M078F360 Y488 SAUCR/M078F350 L453 LAMER/N0458F350 L453 RODRK/N0464F360 DCT PRRDO G504 RATTL
Aircraft A320/M-SDE3FGHIRWY/LB1

Departure

Time 2026-04-22 00:43
Airport Philadelphia International Airport (KPHL)

Arrival

Time 2026-04-22 03:28
Airport Providenciales International Airport (MBPV)
Time Latitude Longitude Altitude Speed Heading
2026-04-22 00:20 39.87508 -75.24625 24 ft 0 kts 287°
2026-04-22 00:33 39.87505 -75.24610 24 ft 3 kts 287°
2026-04-22 00:34 39.87499 -75.24584 24 ft 3 kts 287°
2026-04-22 00:34 39.87493 -75.24560 23 ft 3 kts 277°
2026-04-22 00:34 39.87493 -75.24541 23 ft 3 kts 219°
2026-04-22 00:34 39.87502 -75.24535 22 ft 2 kts 197°
2026-04-22 00:35 39.87517 -75.24529 25 ft 1 kts 197°
2026-04-22 00:35 39.87519 -75.24528 24 ft 0 kts 197°
2026-04-22 00:37 39.87514 -75.24530 26 ft 4 kts 197°
2026-04-22 00:37 39.87474 -75.24546 22 ft 10 kts 197°
2026-04-22 00:37 39.87386 -75.24572 22 ft 14 kts 180°
2026-04-22 00:37 39.87287 -75.24545 22 ft 15 kts 166°
2026-04-22 00:38 39.87207 -75.24470 22 ft 16 kts 98°
2026-04-22 00:38 39.87228 -75.24338 22 ft 14 kts 76°
2026-04-22 00:38 39.87250 -75.24223 22 ft 12 kts 75°
2026-04-22 00:38 39.87270 -75.24126 23 ft 10 kts 75°
2026-04-22 00:39 39.87286 -75.24044 23 ft 9 kts 76°
2026-04-22 00:39 39.87308 -75.23932 22 ft 15 kts 76°
2026-04-22 00:39 39.87329 -75.23825 22 ft 11 kts 76°
2026-04-22 00:39 39.87328 -75.23741 24 ft 8 kts 131°
2026-04-22 00:40 39.87274 -75.23714 21 ft 9 kts 166°
2026-04-22 00:40 39.87206 -75.23691 21 ft 11 kts 166°
2026-04-22 00:40 39.87157 -75.23674 22 ft 11 kts 165°
2026-04-22 00:40 39.87076 -75.23645 22 ft 13 kts 165°
2026-04-22 00:41 39.86987 -75.23635 22 ft 13 kts 204°
2026-04-22 00:41 39.86949 -75.23746 22 ft 14 kts 255°
2026-04-22 00:41 39.86922 -75.23877 22 ft 16 kts 255°
2026-04-22 00:41 39.86894 -75.23933 22 ft 6 kts 194°
2026-04-22 00:42 39.86849 -75.23929 24 ft 7 kts 164°
2026-04-22 00:42 39.86797 -75.23953 22 ft 12 kts 236°
2026-04-22 00:42 39.86769 -75.24076 21 ft 18 kts 256°
2026-04-22 00:42 39.86673 -75.24550 21 ft 95 kts 256°
2026-04-22 00:43 39.86444 -75.25704 21 ft 163 kts 256°
2026-04-22 00:43 39.86147 -75.27269 487 ft 181 kts 252°
2026-04-22 00:43 39.85832 -75.28859 1479 ft 180 kts 251°
2026-04-22 00:43 39.85473 -75.30435 2303 ft 185 kts 243°
2026-04-22 00:44 39.84595 -75.31723 2586 ft 204 kts 207°
2026-04-22 00:44 39.83132 -75.32076 2906 ft 230 kts 180°
2026-04-22 00:44 39.81468 -75.31950 3397 ft 247 kts 179°
2026-04-22 00:44 39.79750 -75.31787 4116 ft 254 kts 179°
2026-04-22 00:45 39.77963 -75.31609 4869 ft 261 kts 180°
2026-04-22 00:45 39.76121 -75.31431 5565 ft 270 kts 180°
2026-04-22 00:45 39.74190 -75.31251 6264 ft 278 kts 181°
2026-04-22 00:45 39.72255 -75.31077 6927 ft 286 kts 181°
2026-04-22 00:46 39.70247 -75.30898 7597 ft 293 kts 181°
2026-04-22 00:46 39.68189 -75.30716 8296 ft 299 kts 181°
2026-04-22 00:46 39.66091 -75.30530 9004 ft 305 kts 181°
2026-04-22 00:46 39.63953 -75.30369 9699 ft 309 kts 186°
2026-04-22 00:47 39.61810 -75.30629 10293 ft 315 kts 194°
2026-04-22 00:47 39.59571 -75.31055 10477 ft 338 kts 194°
2026-04-22 00:47 39.57156 -75.31517 10628 ft 361 kts 193°
2026-04-22 00:47 39.54613 -75.31987 11009 ft 374 kts 193°
2026-04-22 00:48 39.52023 -75.32448 11616 ft 379 kts 192°
2026-04-22 00:48 39.49397 -75.32907 12268 ft 382 kts 192°
2026-04-22 00:48 39.46751 -75.33369 12946 ft 385 kts 192°
2026-04-22 00:48 39.44077 -75.33840 13608 ft 389 kts 192°
2026-04-22 00:49 39.41385 -75.34319 14239 ft 392 kts 192°
2026-04-22 00:49 39.38669 -75.34810 14786 ft 395 kts 193°
2026-04-22 00:49 39.35941 -75.35310 15350 ft 399 kts 193°
2026-04-22 00:49 39.33206 -75.35809 15874 ft 402 kts 193°
2026-04-22 00:50 39.30419 -75.36315 16405 ft 405 kts 193°
2026-04-22 00:50 39.27582 -75.36519 16942 ft 415 kts 179°
2026-04-22 00:50 39.24737 -75.35709 17462 ft 426 kts 161°
2026-04-22 00:50 39.22136 -75.33821 17974 ft 433 kts 142°
2026-04-22 00:51 39.20071 -75.31037 18478 ft 437 kts 123°
2026-04-22 00:51 39.18703 -75.27557 18920 ft 436 kts 104°
2026-04-22 00:51 39.17931 -75.23729 19394 ft 437 kts 100°
2026-04-22 00:51 39.17219 -75.19954 19872 ft 440 kts 100°
2026-04-22 00:52 39.16485 -75.16071 20366 ft 443 kts 100°
2026-04-22 00:52 39.15750 -75.12195 20825 ft 446 kts 100°
2026-04-22 00:52 39.15016 -75.08341 21265 ft 449 kts 100°
2026-04-22 00:52 39.14254 -75.04364 21726 ft 453 kts 101°
2026-04-22 00:53 39.13494 -75.00412 22139 ft 456 kts 101°
2026-04-22 00:53 39.12729 -74.96435 22556 ft 459 kts 100°
2026-04-22 00:53 39.11962 -74.92449 22963 ft 462 kts 101°
2026-04-22 00:53 39.11191 -74.88465 23355 ft 465 kts 101°
2026-04-22 00:54 39.10403 -74.84414 23726 ft 468 kts 101°
2026-04-22 00:54 39.09384 -74.80408 24072 ft 474 kts 110°
2026-04-22 00:54 39.07889 -74.76600 24383 ft 479 kts 120°
2026-04-22 00:54 39.06112 -74.72960 24702 ft 481 kts 121°
2026-04-22 00:55 39.04326 -74.69321 25022 ft 483 kts 121°
2026-04-22 00:55 39.02526 -74.65655 25335 ft 485 kts 121°
2026-04-22 00:55 38.98920 -74.58295 25952 ft 488 kts 121°
2026-04-22 00:56 38.97113 -74.54600 26271 ft 489 kts 121°
2026-04-22 00:56 38.95301 -74.50903 26561 ft 491 kts 121°
2026-04-22 00:56 38.93474 -74.47191 26855 ft 493 kts 121°
2026-04-22 00:56 38.91632 -74.43460 27135 ft 494 kts 121°
2026-04-22 00:57 38.89789 -74.39726 27410 ft 496 kts 121°
2026-04-22 00:57 38.87937 -74.35969 27676 ft 498 kts 121°
2026-04-22 00:57 38.86080 -74.32203 27934 ft 500 kts 121°
2026-04-22 00:57 38.84217 -74.28430 28177 ft 502 kts 121°
2026-04-22 00:58 38.82346 -74.24648 28417 ft 504 kts 121°
2026-04-22 00:58 38.80462 -74.20849 28652 ft 505 kts 121°
2026-04-22 00:58 38.78595 -74.17082 28874 ft 507 kts 121°
2026-04-22 00:58 38.76701 -74.13262 29095 ft 508 kts 121°
2026-04-22 00:59 38.74808 -74.09444 29338 ft 509 kts 121°
2026-04-22 00:59 38.72880 -74.05566 29676 ft 508 kts 122°
2026-04-22 00:59 38.70982 -74.01763 29992 ft 507 kts 122°
2026-04-22 00:59 38.69082 -73.97964 30281 ft 507 kts 121°
2026-04-22 01:00 38.67209 -73.94224 30549 ft 507 kts 121°
2026-04-22 01:00 38.65305 -73.90432 30808 ft 506 kts 121°
2026-04-22 01:00 38.63376 -73.86589 31067 ft 506 kts 121°
2026-04-22 01:00 38.61503 -73.82864 31318 ft 505 kts 122°
2026-04-22 01:01 38.59599 -73.79078 31577 ft 505 kts 122°
2026-04-22 01:01 38.57706 -73.75313 31834 ft 504 kts 122°
2026-04-22 01:01 38.55810 -73.71546 32093 ft 504 kts 122°
2026-04-22 01:01 38.53916 -73.67790 32352 ft 503 kts 122°
2026-04-22 01:02 38.52020 -73.64036 32617 ft 502 kts 121°
2026-04-22 01:02 38.50118 -73.60286 32874 ft 502 kts 122°
2026-04-22 01:02 38.48203 -73.56578 33112 ft 502 kts 122°
2026-04-22 01:02 38.46258 -73.52878 33357 ft 502 kts 123°
2026-04-22 01:03 38.44303 -73.49196 33613 ft 501 kts 123°
2026-04-22 01:03 38.42354 -73.45506 33865 ft 501 kts 122°
2026-04-22 01:03 38.40445 -73.41796 34112 ft 500 kts 122°
2026-04-22 01:03 38.38566 -73.38057 34357 ft 500 kts 121°
2026-04-22 01:04 38.36710 -73.34313 34576 ft 499 kts 121°
2026-04-22 01:04 38.34864 -73.30582 34796 ft 498 kts 121°
2026-04-22 01:04 38.33011 -73.26856 34988 ft 499 kts 121°
2026-04-22 01:04 38.31139 -73.23120 35139 ft 500 kts 121°
2026-04-22 01:05 38.29323 -73.19527 35318 ft 500 kts 121°
2026-04-22 01:05 38.27435 -73.15809 35380 ft 502 kts 121°
2026-04-22 01:05 38.23627 -73.08347 35382 ft 503 kts 122°
2026-04-22 01:06 38.19823 -73.00881 35379 ft 503 kts 121°
2026-04-22 01:06 38.16011 -72.93406 35393 ft 503 kts 121°
2026-04-22 01:07 38.12182 -72.86015 35391 ft 504 kts 122°
2026-04-22 01:07 38.08292 -72.78556 35391 ft 504 kts 122°
2026-04-22 01:08 38.04059 -72.71547 35378 ft 505 kts 136°
2026-04-22 01:08 38.01357 -72.68723 35380 ft 504 kts 147°
2026-04-22 01:08 37.98330 -72.66524 35382 ft 501 kts 158°
2026-04-22 01:09 37.91710 -72.64148 35380 ft 491 kts 178°
2026-04-22 01:09 37.84901 -72.63293 35383 ft 492 kts 178°
2026-04-22 01:10 37.78087 -72.62404 35370 ft 492 kts 178°
2026-04-22 01:10 37.71278 -72.61513 35378 ft 492 kts 178°
2026-04-22 01:11 37.64464 -72.60637 35388 ft 492 kts 178°
2026-04-22 01:11 37.57650 -72.59763 35380 ft 492 kts 178°
2026-04-22 01:12 37.50833 -72.58898 35379 ft 493 kts 178°
2026-04-22 01:12 37.44005 -72.58029 35380 ft 493 kts 178°
2026-04-22 01:13 37.37191 -72.57167 35381 ft 493 kts 178°
2026-04-22 01:13 37.30371 -72.56299 35363 ft 492 kts 178°
2026-04-22 01:14 37.23544 -72.55434 35369 ft 492 kts 178°
2026-04-22 01:14 37.16722 -72.54939 35376 ft 489 kts 183°
2026-04-22 01:15 37.09963 -72.54924 35378 ft 488 kts 185°
2026-04-22 01:15 37.03118 -72.54943 35378 ft 489 kts 184°
2026-04-22 01:16 36.96312 -72.54817 35378 ft 489 kts 183°
2026-04-22 01:16 36.89549 -72.54625 35382 ft 490 kts 183°
2026-04-22 01:17 36.82742 -72.54450 35374 ft 489 kts 183°
2026-04-22 01:17 36.75937 -72.54306 35390 ft 489 kts 183°
2026-04-22 01:18 36.69128 -72.53760 35388 ft 494 kts 172°
2026-04-22 01:18 36.62451 -72.51670 35366 ft 496 kts 168°
2026-04-22 01:19 36.55774 -72.49480 35369 ft 495 kts 168°
2026-04-22 01:19 36.49109 -72.47293 35374 ft 495 kts 168°
2026-04-22 01:20 36.42446 -72.45113 35378 ft 495 kts 168°
2026-04-22 01:20 36.35787 -72.42950 35369 ft 495 kts 168°
2026-04-22 01:21 36.29113 -72.40794 35373 ft 495 kts 168°
2026-04-22 01:21 36.22439 -72.38633 35376 ft 495 kts 168°
2026-04-22 01:22 36.15773 -72.36471 35375 ft 495 kts 168°
2026-04-22 01:22 36.09109 -72.34326 35363 ft 495 kts 168°
2026-04-22 01:23 36.02378 -72.32769 35370 ft 489 kts 181°
2026-04-22 01:23 35.95601 -72.32803 35376 ft 487 kts 185°
2026-04-22 01:24 35.88817 -72.32900 35366 ft 487 kts 184°
2026-04-22 01:24 35.82078 -72.32987 35375 ft 487 kts 185°
2026-04-22 01:25 35.75303 -72.33086 35383 ft 487 kts 185°
2026-04-22 01:25 35.68526 -72.33189 35387 ft 487 kts 185°
2026-04-22 01:26 35.62851 -72.33268 35369 ft 487 kts 184°
2026-04-22 01:26 35.56119 -72.33363 35374 ft 486 kts 184°
2026-04-22 01:27 35.49309 -72.33456 35386 ft 486 kts 184°
2026-04-22 01:27 35.42586 -72.33552 35375 ft 486 kts 184°
2026-04-22 01:28 35.35778 -72.33652 35381 ft 485 kts 184°
2026-04-22 01:28 35.29071 -72.33746 35384 ft 485 kts 184°
2026-04-22 01:29 35.22333 -72.33841 35386 ft 485 kts 184°
2026-04-22 01:29 35.15588 -72.33944 35369 ft 485 kts 184°
2026-04-22 01:30 35.08841 -72.34036 35374 ft 485 kts 184°
2026-04-22 01:30 35.02105 -72.34127 35377 ft 484 kts 184°
2026-04-22 01:31 34.95384 -72.34432 35378 ft 481 kts 192°
2026-04-22 01:31 34.88749 -72.35526 35369 ft 481 kts 192°
2026-04-22 01:32 34.82122 -72.36612 35374 ft 481 kts 192°
2026-04-22 01:32 34.75499 -72.37689 35378 ft 480 kts 192°
2026-04-22 01:33 34.68786 -72.37791 35375 ft 487 kts 178°
2026-04-22 01:33 34.62033 -72.37035 35373 ft 487 kts 178°
2026-04-22 01:34 34.55325 -72.36317 35373 ft 487 kts 178°
2026-04-22 01:34 34.48534 -72.35599 35377 ft 487 kts 178°
2026-04-22 01:35 34.41825 -72.34874 35356 ft 487 kts 178°
2026-04-22 01:35 34.35074 -72.34133 35363 ft 487 kts 178°
2026-04-22 01:36 34.28310 -72.33404 35367 ft 487 kts 178°
2026-04-22 01:36 34.21560 -72.32679 35365 ft 487 kts 178°
2026-04-22 01:37 34.14799 -72.31948 35350 ft 488 kts 178°
2026-04-22 01:37 34.08032 -72.31223 35356 ft 488 kts 178°
2026-04-22 01:38 34.01260 -72.30502 35363 ft 489 kts 178°
2026-04-22 01:38 33.94537 -72.29179 35351 ft 492 kts 170°
2026-04-22 01:39 33.87858 -72.27334 35355 ft 492 kts 170°
2026-04-22 01:39 33.81262 -72.25516 35366 ft 492 kts 170°
2026-04-22 01:40 33.74621 -72.23687 35372 ft 493 kts 170°
2026-04-22 01:40 33.67935 -72.21851 35354 ft 493 kts 170°
2026-04-22 01:41 33.61253 -72.20030 35362 ft 493 kts 170°
2026-04-22 01:41 33.54565 -72.18210 35365 ft 492 kts 170°
2026-04-22 01:42 33.47886 -72.16394 35367 ft 492 kts 170°
2026-04-22 01:42 33.41196 -72.14568 35354 ft 492 kts 170°
2026-04-22 01:43 33.34525 -72.12753 35358 ft 492 kts 170°
2026-04-22 01:43 33.27842 -72.10939 35358 ft 492 kts 170°
2026-04-22 01:44 33.21165 -72.09142 35356 ft 492 kts 170°
2026-04-22 01:44 33.14486 -72.07342 35332 ft 492 kts 171°
2026-04-22 01:45 33.07813 -72.05533 35331 ft 492 kts 171°
2026-04-22 01:45 33.01138 -72.03734 35338 ft 492 kts 171°
2026-04-22 01:46 32.94449 -72.01928 35342 ft 493 kts 171°
2026-04-22 01:46 32.87755 -72.00133 35333 ft 493 kts 171°
2026-04-22 01:47 32.81063 -71.98340 35338 ft 493 kts 171°
2026-04-22 01:47 32.74365 -71.96541 35345 ft 494 kts 171°
2026-04-22 01:48 32.67662 -71.94736 35347 ft 494 kts 171°
2026-04-22 01:48 32.60959 -71.92946 35344 ft 494 kts 171°
2026-04-22 01:49 32.54243 -71.91167 35342 ft 494 kts 171°
2026-04-22 01:49 32.47578 -71.89394 35352 ft 494 kts 171°
2026-04-22 01:50 32.40882 -71.87610 35350 ft 494 kts 171°
2026-04-22 01:50 32.34172 -71.85829 35325 ft 494 kts 172°
2026-04-22 01:51 32.27466 -71.84059 35341 ft 494 kts 171°
2026-04-22 01:51 32.20769 -71.82288 35338 ft 494 kts 172°
2026-04-22 01:52 32.14065 -71.80515 35341 ft 494 kts 171°
2026-04-22 01:52 32.07360 -71.78736 35346 ft 493 kts 171°
2026-04-22 01:53 32.00664 -71.76965 35340 ft 493 kts 172°
2026-04-22 01:53 31.93951 -71.75208 35339 ft 493 kts 172°
2026-04-22 01:54 31.87263 -71.73465 35342 ft 493 kts 172°
2026-04-22 01:54 31.80559 -71.71703 35324 ft 493 kts 172°
2026-04-22 01:55 31.73862 -71.69943 35325 ft 493 kts 172°
2026-04-22 01:55 31.67166 -71.68190 35327 ft 493 kts 172°
2026-04-22 01:56 31.60468 -71.66437 35331 ft 493 kts 172°
2026-04-22 01:56 31.53774 -71.64693 35303 ft 493 kts 172°
2026-04-22 01:57 31.47068 -71.62949 35313 ft 494 kts 172°
2026-04-22 01:57 31.40400 -71.61227 35319 ft 494 kts 172°
2026-04-22 01:58 31.33648 -71.59479 35324 ft 494 kts 172°
2026-04-22 01:58 31.26978 -71.57748 35327 ft 494 kts 172°
2026-04-22 01:59 31.20216 -71.55987 35310 ft 495 kts 172°
2026-04-22 01:59 31.13548 -71.54262 35327 ft 494 kts 172°
2026-04-22 02:00 31.06834 -71.52534 35344 ft 494 kts 173°
2026-04-22 02:00 31.00123 -71.50814 35344 ft 493 kts 173°
2026-04-22 02:01 30.93423 -71.49092 35318 ft 494 kts 173°
2026-04-22 02:01 30.86699 -71.47357 35320 ft 494 kts 173°
2026-04-22 02:02 30.79982 -71.45628 35324 ft 495 kts 173°
2026-04-22 02:02 30.73251 -71.43908 35326 ft 495 kts 173°
2026-04-22 02:03 30.66512 -71.42193 35299 ft 496 kts 174°
2026-04-22 02:03 30.59768 -71.40460 35305 ft 497 kts 174°
2026-04-22 02:04 30.49672 -71.37890 35312 ft 497 kts 174°
2026-04-22 02:05 30.42900 -71.36170 35289 ft 498 kts 174°
2026-04-22 02:05 30.36134 -71.34449 35293 ft 498 kts 174°
2026-04-22 02:06 30.29358 -71.32728 35306 ft 498 kts 174°
2026-04-22 02:06 30.22585 -71.31012 35311 ft 499 kts 174°
2026-04-22 02:07 30.15797 -71.29292 35316 ft 499 kts 174°
2026-04-22 02:07 30.09056 -71.27589 35298 ft 499 kts 174°
2026-04-22 02:08 30.02273 -71.25875 35309 ft 498 kts 174°
2026-04-22 02:08 29.95502 -71.24165 35319 ft 498 kts 174°
2026-04-22 02:09 29.88692 -71.22453 35314 ft 497 kts 174°
2026-04-22 02:09 29.81983 -71.20770 35298 ft 497 kts 174°
2026-04-22 02:10 29.75234 -71.19076 35302 ft 496 kts 174°
2026-04-22 02:10 29.68478 -71.17374 35304 ft 496 kts 174°
2026-04-22 02:11 29.62825 -71.15958 35305 ft 496 kts 174°
2026-04-22 02:11 29.56114 -71.14290 35277 ft 496 kts 174°
2026-04-22 02:12 29.49374 -71.12615 35315 ft 496 kts 174°
2026-04-22 02:12 29.42628 -71.10929 35321 ft 495 kts 174°
2026-04-22 02:13 29.35895 -71.09243 35313 ft 495 kts 174°
2026-04-22 02:13 29.29169 -71.07564 35317 ft 495 kts 174°
2026-04-22 02:14 29.22435 -71.05899 35313 ft 495 kts 174°
2026-04-22 02:14 29.15697 -71.04232 35308 ft 495 kts 174°
2026-04-22 02:15 29.08977 -71.02569 35316 ft 495 kts 174°
2026-04-22 02:15 29.02241 -71.00902 35313 ft 495 kts 174°
2026-04-22 02:16 28.95517 -70.99238 35290 ft 494 kts 174°
2026-04-22 02:16 28.88784 -70.97583 35300 ft 494 kts 174°
2026-04-22 02:17 28.82066 -70.95929 35304 ft 493 kts 174°
2026-04-22 02:17 28.75368 -70.94273 35301 ft 493 kts 174°
2026-04-22 02:18 28.68669 -70.92625 35281 ft 492 kts 174°
2026-04-22 02:18 28.61979 -70.90990 35286 ft 491 kts 174°
2026-04-22 02:19 28.55296 -70.89358 35289 ft 491 kts 174°
2026-04-22 02:19 28.48615 -70.87718 35296 ft 491 kts 174°
2026-04-22 02:20 28.41983 -70.86097 35265 ft 490 kts 174°
2026-04-22 02:20 28.35326 -70.84471 35294 ft 489 kts 174°
2026-04-22 02:21 28.28682 -70.82846 35298 ft 488 kts 174°
2026-04-22 02:21 28.22052 -70.81231 35298 ft 487 kts 174°
2026-04-22 02:22 28.15418 -70.79619 35297 ft 486 kts 174°
2026-04-22 02:22 28.08812 -70.78015 35287 ft 485 kts 174°
2026-04-22 02:23 28.02211 -70.76415 35299 ft 484 kts 174°
2026-04-22 02:23 27.95625 -70.74825 35298 ft 483 kts 174°
2026-04-22 02:24 27.89050 -70.73238 35299 ft 483 kts 174°
2026-04-22 02:24 27.82479 -70.71652 35276 ft 482 kts 174°
2026-04-22 02:25 27.75970 -70.70079 35288 ft 481 kts 174°
2026-04-22 02:25 27.69433 -70.68507 35287 ft 480 kts 174°
2026-04-22 02:26 27.62912 -70.66934 35288 ft 479 kts 174°
2026-04-22 02:26 27.56390 -70.65367 35246 ft 479 kts 175°
2026-04-22 02:27 27.49882 -70.63805 35263 ft 478 kts 175°
2026-04-22 02:27 27.43381 -70.62250 35270 ft 477 kts 175°
2026-04-22 02:28 27.36881 -70.60690 35265 ft 477 kts 174°
2026-04-22 02:28 27.30392 -70.59131 35268 ft 477 kts 175°
2026-04-22 02:29 27.23900 -70.57581 35251 ft 476 kts 175°
2026-04-22 02:29 27.17415 -70.56030 35257 ft 476 kts 175°
2026-04-22 02:30 27.10929 -70.54491 35265 ft 476 kts 175°
2026-04-22 02:30 27.04495 -70.52967 35264 ft 476 kts 175°
2026-04-22 02:31 26.98018 -70.51417 35262 ft 475 kts 175°
2026-04-22 02:31 26.91554 -70.49874 35255 ft 475 kts 175°
2026-04-22 02:32 26.85081 -70.48339 35258 ft 475 kts 175°
2026-04-22 02:32 26.78616 -70.46817 35254 ft 475 kts 175°
2026-04-22 02:33 26.72154 -70.45285 35261 ft 475 kts 175°
2026-04-22 02:33 26.65692 -70.43750 35227 ft 474 kts 176°
2026-04-22 02:34 26.59242 -70.42223 35242 ft 474 kts 176°
2026-04-22 02:34 26.52783 -70.40703 35250 ft 474 kts 176°
2026-04-22 02:35 26.46372 -70.39193 35259 ft 474 kts 176°
2026-04-22 02:35 26.39926 -70.37682 35252 ft 474 kts 176°
2026-04-22 02:36 26.33475 -70.36162 35253 ft 474 kts 176°
2026-04-22 02:36 26.27025 -70.34641 35248 ft 474 kts 176°
2026-04-22 02:37 26.20569 -70.33132 35247 ft 474 kts 176°
2026-04-22 02:37 26.14120 -70.31622 35242 ft 474 kts 176°
2026-04-22 02:38 26.07663 -70.30107 35218 ft 474 kts 176°
2026-04-22 02:38 26.01222 -70.28596 35235 ft 473 kts 176°
2026-04-22 02:39 25.94778 -70.27088 35233 ft 473 kts 176°
2026-04-22 02:39 25.88327 -70.25591 35236 ft 473 kts 176°
2026-04-22 02:40 25.81877 -70.24094 35237 ft 473 kts 176°
2026-04-22 02:40 25.75433 -70.22593 35215 ft 473 kts 176°
2026-04-22 02:41 25.69030 -70.21097 35217 ft 473 kts 176°
2026-04-22 02:41 25.62586 -70.19596 35223 ft 473 kts 176°
2026-04-22 02:42 25.56137 -70.18109 35224 ft 473 kts 176°
2026-04-22 02:42 25.49701 -70.16620 35223 ft 473 kts 176°
2026-04-22 02:43 25.43246 -70.15122 35192 ft 473 kts 176°
2026-04-22 02:43 25.36808 -70.13632 35202 ft 473 kts 176°
2026-04-22 02:44 25.30356 -70.12139 35206 ft 473 kts 176°
2026-04-22 02:44 25.23909 -70.10651 35207 ft 473 kts 176°
2026-04-22 02:45 25.17462 -70.09170 35177 ft 473 kts 176°
2026-04-22 02:45 25.11006 -70.07684 35176 ft 474 kts 176°
2026-04-22 02:46 25.04557 -70.06203 35182 ft 474 kts 176°
2026-04-22 02:46 24.98134 -70.05059 35185 ft 463 kts 186°
2026-04-22 02:47 24.91718 -70.04758 35189 ft 462 kts 186°
2026-04-22 02:47 24.85281 -70.04474 35164 ft 462 kts 186°
2026-04-22 02:48 24.78861 -70.04185 35176 ft 462 kts 186°
2026-04-22 02:48 24.72420 -70.03889 35175 ft 462 kts 186°
2026-04-22 02:49 24.66050 -70.03590 35184 ft 462 kts 186°
2026-04-22 02:49 24.59662 -70.03296 35181 ft 462 kts 186°
2026-04-22 02:50 24.53197 -70.02999 35157 ft 461 kts 187°
2026-04-22 02:50 24.46822 -70.02709 35173 ft 461 kts 187°
2026-04-22 02:51 24.40414 -70.02417 35177 ft 460 kts 187°
2026-04-22 02:51 24.34020 -70.02120 35180 ft 460 kts 187°
2026-04-22 02:52 24.27621 -70.01827 35148 ft 460 kts 187°
2026-04-22 02:52 24.21347 -70.02125 35158 ft 440 kts 201°
2026-04-22 02:52 24.18449 -70.03030 35166 ft 428 kts 210°
2026-04-22 02:53 24.15780 -70.04379 35168 ft 417 kts 218°
2026-04-22 02:53 24.11287 -70.08154 35166 ft 402 kts 231°
2026-04-22 02:54 24.07278 -70.12435 35167 ft 403 kts 231°
2026-04-22 02:54 24.03258 -70.16707 35152 ft 403 kts 231°
2026-04-22 02:55 23.99234 -70.20974 35132 ft 402 kts 231°
2026-04-22 02:55 23.95213 -70.25226 35139 ft 402 kts 231°
2026-04-22 02:56 23.91195 -70.29477 35150 ft 402 kts 231°
2026-04-22 02:56 23.87178 -70.33735 35156 ft 401 kts 231°
2026-04-22 02:57 23.83168 -70.37969 35155 ft 401 kts 231°
2026-04-22 02:57 23.79833 -70.41486 35157 ft 401 kts 231°
2026-04-22 02:58 23.75154 -70.46417 35161 ft 401 kts 231°
2026-04-22 02:58 23.71810 -70.49941 35133 ft 401 kts 231°
2026-04-22 02:59 23.67796 -70.54169 35146 ft 401 kts 231°
2026-04-22 02:59 23.63786 -70.58396 35148 ft 401 kts 231°
2026-04-22 03:00 23.59749 -70.62640 35148 ft 401 kts 231°
2026-04-22 03:00 23.55750 -70.66829 35160 ft 401 kts 231°
2026-04-22 03:01 23.51738 -70.71033 35147 ft 401 kts 231°
2026-04-22 03:01 23.47714 -70.75245 35148 ft 401 kts 231°
2026-04-22 03:02 23.43691 -70.79452 35156 ft 401 kts 231°
2026-04-22 03:02 23.39676 -70.83667 35161 ft 401 kts 231°
2026-04-22 03:03 23.35649 -70.87883 35150 ft 401 kts 231°
2026-04-22 03:03 23.31614 -70.92088 35155 ft 402 kts 231°
2026-04-22 03:04 23.27582 -70.96291 35152 ft 402 kts 231°
2026-04-22 03:04 23.23570 -71.00474 35145 ft 402 kts 231°
2026-04-22 03:05 23.19527 -71.04692 35114 ft 402 kts 231°
2026-04-22 03:05 23.15485 -71.08897 35122 ft 402 kts 231°
2026-04-22 03:06 23.11452 -71.13097 35151 ft 402 kts 231°
2026-04-22 03:06 23.07413 -71.17287 35151 ft 402 kts 231°
2026-04-22 03:07 23.03367 -71.21479 35152 ft 401 kts 231°
2026-04-22 03:07 22.99341 -71.25665 35153 ft 401 kts 231°
2026-04-22 03:08 22.95281 -71.29877 35149 ft 401 kts 231°
2026-04-22 03:08 22.91265 -71.34019 35121 ft 400 kts 231°
2026-04-22 03:09 22.87242 -71.38181 35135 ft 399 kts 231°
2026-04-22 03:09 22.83226 -71.42337 34833 ft 400 kts 231°
2026-04-22 03:09 22.81200 -71.44442 33704 ft 408 kts 231°
2026-04-22 03:10 22.79125 -71.46596 32476 ft 416 kts 231°
2026-04-22 03:10 22.77016 -71.48779 31290 ft 422 kts 230°
2026-04-22 03:10 22.74885 -71.50973 30303 ft 424 kts 229°
2026-04-22 03:10 22.72739 -71.53174 29271 ft 425 kts 229°
2026-04-22 03:11 22.70615 -71.55348 28798 ft 415 kts 229°
2026-04-22 03:11 22.68533 -71.57479 28157 ft 409 kts 229°
2026-04-22 03:11 22.66475 -71.59594 27547 ft 405 kts 229°
2026-04-22 03:11 22.64452 -71.61679 26923 ft 401 kts 229°
2026-04-22 03:12 22.62441 -71.63751 26328 ft 397 kts 229°
2026-04-22 03:12 22.58461 -71.67853 25162 ft 392 kts 228°
2026-04-22 03:12 22.56484 -71.69883 24573 ft 391 kts 228°
2026-04-22 03:13 22.54514 -71.71902 23996 ft 390 kts 228°
2026-04-22 03:13 22.52550 -71.73919 23379 ft 390 kts 228°
2026-04-22 03:13 22.50633 -71.75884 22810 ft 388 kts 227°
2026-04-22 03:13 22.48687 -71.77881 22289 ft 384 kts 227°
2026-04-22 03:14 22.46754 -71.79861 21768 ft 382 kts 227°
2026-04-22 03:14 22.44769 -71.81765 21232 ft 383 kts 221°
2026-04-22 03:14 22.42533 -71.83347 20706 ft 384 kts 216°
2026-04-22 03:14 22.40257 -71.84864 20205 ft 382 kts 216°
2026-04-22 03:15 22.38008 -71.86359 19703 ft 380 kts 215°
2026-04-22 03:15 22.35766 -71.87847 19243 ft 377 kts 215°
2026-04-22 03:15 22.33530 -71.89327 18766 ft 375 kts 215°
2026-04-22 03:15 22.31313 -71.90799 18247 ft 374 kts 215°
2026-04-22 03:16 22.29099 -71.92269 17724 ft 372 kts 215°
2026-04-22 03:16 22.26892 -71.93731 17215 ft 370 kts 214°
2026-04-22 03:16 22.24710 -71.95178 16706 ft 368 kts 214°
2026-04-22 03:16 22.22529 -71.96625 16179 ft 367 kts 214°
2026-04-22 03:17 22.20354 -71.98070 15666 ft 366 kts 214°
2026-04-22 03:17 22.18192 -71.99506 15134 ft 366 kts 216°
2026-04-22 03:17 22.16021 -72.00946 14599 ft 366 kts 215°
2026-04-22 03:17 22.13854 -72.02382 14057 ft 366 kts 216°
2026-04-22 03:18 22.11723 -72.03794 13480 ft 365 kts 214°
2026-04-22 03:18 22.09557 -72.05229 12929 ft 363 kts 213°
2026-04-22 03:18 22.07409 -72.06651 12359 ft 362 kts 212°
2026-04-22 03:18 22.05266 -72.08068 11802 ft 360 kts 213°
2026-04-22 03:19 22.03135 -72.09480 11233 ft 359 kts 213°
2026-04-22 03:19 22.01010 -72.10883 10772 ft 355 kts 214°
2026-04-22 03:19 21.98992 -72.12306 10653 ft 338 kts 221°
2026-04-22 03:19 21.97381 -72.14053 10531 ft 321 kts 234°
2026-04-22 03:20 21.96240 -72.16050 10410 ft 305 kts 247°
2026-04-22 03:20 21.95518 -72.18140 10269 ft 293 kts 253°
2026-04-22 03:20 21.94870 -72.20200 10176 ft 290 kts 253°
2026-04-22 03:20 21.94217 -72.22256 9970 ft 292 kts 253°
2026-04-22 03:21 21.93551 -72.24347 9452 ft 295 kts 254°
2026-04-22 03:21 21.92889 -72.26416 9022 ft 290 kts 252°
2026-04-22 03:21 21.92227 -72.28474 8263 ft 290 kts 252°
2026-04-22 03:21 21.91571 -72.30515 7637 ft 289 kts 253°
2026-04-22 03:22 21.90914 -72.32568 7085 ft 290 kts 252°
2026-04-22 03:22 21.90260 -72.34614 6537 ft 296 kts 251°
2026-04-22 03:22 21.89592 -72.36705 6012 ft 298 kts 253°
2026-04-22 03:22 21.88910 -72.38837 5566 ft 295 kts 253°
2026-04-22 03:23 21.88263 -72.40845 5457 ft 271 kts 252°
2026-04-22 03:23 21.87665 -72.42702 5339 ft 259 kts 252°
2026-04-22 03:23 21.86888 -72.44446 5234 ft 262 kts 231°
2026-04-22 03:23 21.85480 -72.45634 5010 ft 261 kts 200°
2026-04-22 03:24 21.83723 -72.45994 4570 ft 257 kts 178°
2026-04-22 03:24 21.81928 -72.46085 4161 ft 258 kts 179°
2026-04-22 03:24 21.80146 -72.46099 3756 ft 254 kts 166°
2026-04-22 03:24 21.78655 -72.45286 3394 ft 235 kts 125°
2026-04-22 03:25 21.78024 -72.43770 3048 ft 219 kts 93°
2026-04-22 03:25 21.77896 -72.42154 2734 ft 215 kts 87°
2026-04-22 03:25 21.77861 -72.40552 2405 ft 213 kts 88°
2026-04-22 03:25 21.77837 -72.39005 2154 ft 198 kts 87°
2026-04-22 03:26 21.77804 -72.37540 2230 ft 194 kts 87°
2026-04-22 03:26 21.77759 -72.36112 2008 ft 189 kts 88°
2026-04-22 03:26 21.77701 -72.34685 1424 ft 191 kts 88°
2026-04-22 03:26 21.77649 -72.33276 943 ft 182 kts 87°
2026-04-22 03:27 21.77596 -72.31996 761 ft 159 kts 89°
2026-04-22 03:27 21.77539 -72.30865 654 ft 144 kts 86°
2026-04-22 03:27 21.77508 -72.29820 400 ft 136 kts 88°
2026-04-22 03:27 21.77462 -72.28820 196 ft 133 kts 86°
2026-04-22 03:28 21.77414 -72.27831 58 ft 131 kts 89°
2026-04-22 03:28 21.77379 -72.26965 38 ft 95 kts 90°
2026-04-22 03:28 21.77359 -72.26579 37 ft 16 kts 92°
2026-04-22 03:28 21.77351 -72.26448 38 ft 18 kts 94°
2026-04-22 03:29 21.77345 -72.26318 37 ft 14 kts 91°
2026-04-22 03:29 21.77342 -72.26201 36 ft 16 kts 93°
2026-04-22 03:29 21.77335 -72.26067 37 ft 20 kts 93°
2026-04-22 03:29 21.77326 -72.25911 38 ft 22 kts 93°
2026-04-22 03:30 21.77320 -72.25746 36 ft 20 kts 91°
2026-04-22 03:30 21.77339 -72.25602 35 ft 20 kts 66°
2026-04-22 03:30 21.77323 -72.25551 37 ft 1 kts 216°
2026-04-22 03:30 21.77313 -72.25623 35 ft 27 kts 272°
2026-04-22 03:31 21.77331 -72.25988 38 ft 59 kts 273°
2026-04-22 03:31 21.77352 -72.26428 38 ft 58 kts 273°
2026-04-22 03:31 21.77371 -72.26806 37 ft 36 kts 273°
2026-04-22 03:31 21.77377 -72.26912 38 ft 0 kts 273°
2026-04-22 03:32 21.77379 -72.26945 38 ft 9 kts 279°
2026-04-22 03:32 21.77383 -72.27011 34 ft 9 kts 269°
2026-04-22 03:32 21.77408 -72.27063 37 ft 7 kts 325°
2026-04-22 03:32 21.77450 -72.27071 39 ft 5 kts 358°
2026-04-22 03:33 21.77482 -72.27072 40 ft 4 kts 347°
2026-04-22 03:33 21.77509 -72.27124 41 ft 10 kts 277°
2026-04-22 03:33 21.77514 -72.27194 42 ft 9 kts 274°
2026-04-22 03:33 21.77517 -72.27255 42 ft 8 kts 273°
2026-04-22 03:34 21.77520 -72.27315 41 ft 9 kts 273°
2026-04-22 03:34 21.77526 -72.27376 40 ft 7 kts 294°
2026-04-22 03:34 21.77563 -72.27385 42 ft 6 kts 17°
2026-04-22 03:34 21.77594 -72.27366 42 ft 4 kts 32°
2026-04-22 03:35 21.77603 -72.27359 42 ft 3 kts 33°
2026-04-22 03:35 21.77610 -72.27354 42 ft 0 kts 33°